RYL121 RPSP-RPNS

Flight info

Callsign RYL121
Flight time 0h 40m
Altitude 19000
Route LAMOK2P LAMOK DCT BULAD DCT RPNS
Aircraft A320/M-V/N

Departure

Time 2026-04-29 12:03
Airport Bohol-Panglao International Airport (RPSP)

Arrival

Time 2026-04-29 12:43
Airport Siargao Airport (RPNS)
Time Latitude Longitude Altitude Speed Heading
2026-04-29 11:41 9.56978 123.77213 48 ft 0 kts 121°
2026-04-29 11:53 9.56986 123.77200 48 ft 2 kts 121°
2026-04-29 11:53 9.56993 123.77187 48 ft 2 kts 121°
2026-04-29 11:54 9.57001 123.77174 48 ft 2 kts 121°
2026-04-29 11:54 9.57009 123.77161 48 ft 2 kts 121°
2026-04-29 11:54 9.57017 123.77147 48 ft 2 kts 121°
2026-04-29 11:54 9.57027 123.77136 48 ft 2 kts 157°
2026-04-29 11:55 9.57042 123.77134 48 ft 2 kts 194°
2026-04-29 11:55 9.57050 123.77136 48 ft 1 kts 213°
2026-04-29 11:55 9.57054 123.77139 48 ft 0 kts 211°
2026-04-29 11:58 9.57045 123.77134 48 ft 2 kts 211°
2026-04-29 11:58 9.57035 123.77128 48 ft 3 kts 211°
2026-04-29 11:59 9.57005 123.77110 48 ft 5 kts 210°
2026-04-29 11:59 9.56964 123.77087 48 ft 7 kts 210°
2026-04-29 11:59 9.56915 123.77058 48 ft 8 kts 209°
2026-04-29 11:59 9.56858 123.77021 48 ft 10 kts 216°
2026-04-29 12:00 9.56846 123.76959 48 ft 10 kts 302°
2026-04-29 12:00 9.56887 123.76890 48 ft 11 kts 300°
2026-04-29 12:00 9.56926 123.76812 48 ft 12 kts 274°
2026-04-29 12:00 9.56866 123.76753 48 ft 13 kts 210°
2026-04-29 12:01 9.56785 123.76704 48 ft 13 kts 211°
2026-04-29 12:01 9.56697 123.76653 48 ft 14 kts 210°
2026-04-29 12:01 9.56607 123.76599 48 ft 15 kts 211°
2026-04-29 12:01 9.56510 123.76550 48 ft 15 kts 189°
2026-04-29 12:02 9.56420 123.76519 48 ft 10 kts 267°
2026-04-29 12:02 9.56461 123.76510 48 ft 7 kts 24°
2026-04-29 12:02 9.56510 123.76540 48 ft 9 kts 31°
2026-04-29 12:02 9.56670 123.76636 48 ft 59 kts 31°
2026-04-29 12:03 9.57229 123.76971 48 ft 124 kts 31°
2026-04-29 12:03 9.58127 123.77497 219 ft 161 kts 32°
2026-04-29 12:03 9.59068 123.78064 882 ft 158 kts 35°
2026-04-29 12:03 9.60035 123.78559 1583 ft 160 kts 12°
2026-04-29 12:04 9.61170 123.78455 2153 ft 169 kts 353°
2026-04-29 12:04 9.62366 123.78189 2558 ft 185 kts 352°
2026-04-29 12:04 9.63696 123.77901 2929 ft 205 kts 352°
2026-04-29 12:04 9.65158 123.77602 3353 ft 224 kts 352°
2026-04-29 12:05 9.66765 123.77287 3895 ft 239 kts 352°
2026-04-29 12:05 9.68410 123.76968 4660 ft 243 kts 352°
2026-04-29 12:05 9.70079 123.76649 5479 ft 245 kts 352°
2026-04-29 12:05 9.71753 123.76334 6268 ft 248 kts 352°
2026-04-29 12:06 9.73463 123.76015 7046 ft 251 kts 352°
2026-04-29 12:06 9.75169 123.75695 7806 ft 253 kts 352°
2026-04-29 12:06 9.76920 123.75374 8546 ft 257 kts 354°
2026-04-29 12:06 9.78701 123.75155 9274 ft 259 kts 359°
2026-04-29 12:07 9.80526 123.75080 9770 ft 271 kts
2026-04-29 12:07 9.82465 123.75068 10221 ft 284 kts
2026-04-29 12:07 9.84463 123.75485 10595 ft 297 kts 24°
2026-04-29 12:07 9.86252 123.76591 10898 ft 313 kts 42°
2026-04-29 12:08 9.87657 123.78376 11189 ft 330 kts 61°
2026-04-29 12:08 9.88232 123.79902 11453 ft 340 kts 75°
2026-04-29 12:08 9.88409 123.81230 11773 ft 345 kts 86°
2026-04-29 12:08 9.88114 123.83654 12468 ft 350 kts 98°
2026-04-29 12:09 9.87597 123.86070 13120 ft 352 kts 99°
2026-04-29 12:09 9.87066 123.88527 13712 ft 356 kts 99°
2026-04-29 12:09 9.86543 123.90965 14281 ft 359 kts 99°
2026-04-29 12:09 9.86012 123.93459 14835 ft 363 kts 99°
2026-04-29 12:10 9.85481 123.95956 15381 ft 366 kts 99°
2026-04-29 12:10 9.84943 123.98492 15921 ft 368 kts 100°
2026-04-29 12:10 9.84398 124.01069 16457 ft 371 kts 100°
2026-04-29 12:10 9.83855 124.03631 16956 ft 373 kts 100°
2026-04-29 12:11 9.83308 124.06209 17421 ft 376 kts 100°
2026-04-29 12:11 9.82762 124.08785 17873 ft 379 kts 100°
2026-04-29 12:11 9.82205 124.11410 18305 ft 383 kts 100°
2026-04-29 12:11 9.81641 124.14069 18722 ft 386 kts 100°
2026-04-29 12:12 9.81072 124.16758 18928 ft 387 kts 100°
2026-04-29 12:12 9.80507 124.19428 18943 ft 387 kts 100°
2026-04-29 12:12 9.79944 124.22082 18956 ft 387 kts 100°
2026-04-29 12:12 9.79375 124.24766 18965 ft 387 kts 101°
2026-04-29 12:13 9.78810 124.27428 18966 ft 387 kts 100°
2026-04-29 12:13 9.78247 124.30084 18966 ft 387 kts 101°
2026-04-29 12:13 9.77683 124.32739 18961 ft 387 kts 100°
2026-04-29 12:13 9.77107 124.35452 18956 ft 387 kts 100°
2026-04-29 12:14 9.76546 124.38093 18949 ft 387 kts 100°
2026-04-29 12:14 9.75978 124.40769 18942 ft 386 kts 100°
2026-04-29 12:14 9.75409 124.43443 18935 ft 386 kts 100°
2026-04-29 12:14 9.74842 124.46112 18930 ft 386 kts 100°
2026-04-29 12:15 9.74277 124.48769 18923 ft 386 kts 100°
2026-04-29 12:15 9.73710 124.51432 18917 ft 386 kts 100°
2026-04-29 12:15 9.73140 124.54108 18916 ft 386 kts 100°
2026-04-29 12:15 9.72580 124.56741 18918 ft 386 kts 100°
2026-04-29 12:16 9.72008 124.59431 18917 ft 386 kts 100°
2026-04-29 12:16 9.71441 124.62090 18916 ft 386 kts 100°
2026-04-29 12:16 9.70881 124.64723 18916 ft 386 kts 100°
2026-04-29 12:16 9.70314 124.67385 18917 ft 386 kts 100°
2026-04-29 12:17 9.69748 124.70055 18914 ft 386 kts 100°
2026-04-29 12:17 9.69182 124.72714 18908 ft 386 kts 100°
2026-04-29 12:17 9.68618 124.75362 18905 ft 385 kts 100°
2026-04-29 12:17 9.68050 124.78022 18720 ft 385 kts 100°
2026-04-29 12:18 9.67486 124.80662 18488 ft 382 kts 100°
2026-04-29 12:18 9.66917 124.83323 18254 ft 381 kts 100°
2026-04-29 12:18 9.66359 124.85932 18026 ft 380 kts 100°
2026-04-29 12:18 9.65802 124.88539 17794 ft 378 kts 100°
2026-04-29 12:19 9.65248 124.91125 17561 ft 376 kts 100°
2026-04-29 12:19 9.64700 124.93694 17326 ft 375 kts 100°
2026-04-29 12:19 9.64147 124.96281 17083 ft 373 kts 100°
2026-04-29 12:19 9.63597 124.98851 16805 ft 372 kts 100°
2026-04-29 12:20 9.63051 125.01402 16448 ft 369 kts 100°
2026-04-29 12:20 9.62514 125.03908 16040 ft 367 kts 99°
2026-04-29 12:20 9.61974 125.06426 15607 ft 364 kts 99°
2026-04-29 12:20 9.61438 125.08926 15156 ft 361 kts 99°
2026-04-29 12:21 9.60928 125.11424 14710 ft 358 kts 96°
2026-04-29 12:21 9.60746 125.13912 14256 ft 353 kts 87°
2026-04-29 12:21 9.60964 125.16367 13800 ft 349 kts 79°
2026-04-29 12:21 9.61406 125.18778 13359 ft 347 kts 77°
2026-04-29 12:22 9.61874 125.21159 12906 ft 344 kts 77°
2026-04-29 12:22 9.62347 125.23550 12457 ft 341 kts 77°
2026-04-29 12:22 9.62807 125.25890 12019 ft 338 kts 77°
2026-04-29 12:22 9.63260 125.28208 11618 ft 337 kts 77°
2026-04-29 12:23 9.63715 125.30544 11258 ft 336 kts 77°
2026-04-29 12:23 9.64165 125.32864 10904 ft 335 kts 77°
2026-04-29 12:23 9.64610 125.35165 10548 ft 331 kts 78°
2026-04-29 12:23 9.65044 125.37415 10187 ft 318 kts 78°
2026-04-29 12:24 9.65461 125.39578 9786 ft 306 kts 78°
2026-04-29 12:24 9.65854 125.41625 9501 ft 291 kts 78°
2026-04-29 12:24 9.66239 125.43623 9211 ft 278 kts 78°
2026-04-29 12:24 9.66610 125.45552 8906 ft 275 kts 78°
2026-04-29 12:25 9.66979 125.47466 8601 ft 273 kts 78°
2026-04-29 12:25 9.67351 125.49397 8334 ft 272 kts 78°
2026-04-29 12:25 9.68063 125.53103 7765 ft 258 kts 78°
2026-04-29 12:26 9.68407 125.54891 7472 ft 249 kts 78°
2026-04-29 12:26 9.68731 125.56600 7179 ft 240 kts 78°
2026-04-29 12:26 9.69143 125.58226 6888 ft 232 kts 70°
2026-04-29 12:26 9.69697 125.59762 6626 ft 228 kts 68°
2026-04-29 12:27 9.70281 125.61286 6386 ft 228 kts 68°
2026-04-29 12:27 9.70868 125.62801 6143 ft 228 kts 68°
2026-04-29 12:27 9.71451 125.64304 5905 ft 227 kts 68°
2026-04-29 12:27 9.72036 125.65811 5674 ft 226 kts 68°
2026-04-29 12:28 9.72610 125.67310 5553 ft 225 kts 68°
2026-04-29 12:28 9.73179 125.68808 5431 ft 225 kts 68°
2026-04-29 12:28 9.73744 125.70300 5314 ft 225 kts 68°
2026-04-29 12:28 9.74312 125.71796 5188 ft 224 kts 68°
2026-04-29 12:29 9.74874 125.73280 5061 ft 223 kts 68°
2026-04-29 12:29 9.75444 125.74784 4915 ft 222 kts 68°
2026-04-29 12:29 9.75999 125.76251 4767 ft 222 kts 68°
2026-04-29 12:29 9.76554 125.77720 4622 ft 221 kts 68°
2026-04-29 12:30 9.77108 125.79180 4476 ft 221 kts 68°
2026-04-29 12:30 9.77661 125.80643 4331 ft 221 kts 68°
2026-04-29 12:30 9.78214 125.82110 4186 ft 221 kts 68°
2026-04-29 12:30 9.78770 125.83581 4040 ft 220 kts 68°
2026-04-29 12:31 9.79324 125.85053 3895 ft 220 kts 68°
2026-04-29 12:31 9.79875 125.86525 3746 ft 219 kts 68°
2026-04-29 12:31 9.80416 125.87973 3601 ft 218 kts 68°
2026-04-29 12:31 9.80953 125.89418 3457 ft 218 kts 68°
2026-04-29 12:32 9.81493 125.90881 3311 ft 218 kts 68°
2026-04-29 12:32 9.82028 125.92333 3167 ft 218 kts 68°
2026-04-29 12:32 9.82566 125.93790 3021 ft 218 kts 68°
2026-04-29 12:32 9.83104 125.95242 2982 ft 216 kts 68°
2026-04-29 12:33 9.83626 125.96646 2989 ft 205 kts 68°
2026-04-29 12:33 9.84124 125.97987 3002 ft 201 kts 68°
2026-04-29 12:33 9.84627 125.99329 3010 ft 201 kts 68°
2026-04-29 12:33 9.85127 126.00665 2973 ft 199 kts 68°
2026-04-29 12:34 9.85621 126.01989 2696 ft 200 kts 68°
2026-04-29 12:34 9.86114 126.03312 2525 ft 199 kts 68°
2026-04-29 12:34 9.86604 126.04636 2522 ft 200 kts 68°
2026-04-29 12:34 9.87098 126.05973 2518 ft 200 kts 68°
2026-04-29 12:35 9.87592 126.07323 2516 ft 200 kts 68°
2026-04-29 12:35 9.88084 126.08663 2514 ft 199 kts 68°
2026-04-29 12:35 9.88376 126.10039 2488 ft 199 kts 93°
2026-04-29 12:35 9.87828 126.11315 2479 ft 198 kts 131°
2026-04-29 12:36 9.86624 126.11944 2467 ft 194 kts 171°
2026-04-29 12:36 9.85253 126.11878 2509 ft 199 kts 185°
2026-04-29 12:36 9.83880 126.11634 2580 ft 196 kts 187°
2026-04-29 12:36 9.82529 126.11358 2538 ft 191 kts 188°
2026-04-29 12:37 9.81220 126.11079 2522 ft 190 kts 188°
2026-04-29 12:37 9.79884 126.10793 2514 ft 191 kts 188°
2026-04-29 12:37 9.78560 126.10513 2517 ft 191 kts 188°
2026-04-29 12:37 9.77231 126.10236 2517 ft 191 kts 188°
2026-04-29 12:38 9.75900 126.09954 2513 ft 192 kts 192°
2026-04-29 12:38 9.74752 126.09255 2493 ft 194 kts 231°
2026-04-29 12:38 9.74291 126.07986 2494 ft 189 kts 274°
2026-04-29 12:38 9.74585 126.06684 2530 ft 185 kts 289°
2026-04-29 12:39 9.74817 126.05464 2490 ft 166 kts 282°
2026-04-29 12:39 9.74944 126.04359 2318 ft 150 kts 280°
2026-04-29 12:39 9.75051 126.03305 1978 ft 148 kts 280°
2026-04-29 12:39 9.75169 126.02277 1626 ft 143 kts 289°
2026-04-29 12:40 9.75619 126.01403 1546 ft 136 kts 317°
2026-04-29 12:40 9.76411 126.01055 1495 ft 123 kts
2026-04-29 12:40 9.77295 126.01199 1507 ft 126 kts
2026-04-29 12:40 9.78195 126.01174 1455 ft 129 kts 356°
2026-04-29 12:41 9.79022 126.01006 1344 ft 129 kts 351°
2026-04-29 12:41 9.79485 126.00899 1294 ft 129 kts 353°
2026-04-29 12:42 9.80397 126.00774 1219 ft 129 kts
2026-04-29 12:42 9.81297 126.00765 1067 ft 127 kts
2026-04-29 12:42 9.82194 126.00860 822 ft 127 kts 12°
2026-04-29 12:42 9.83065 126.01017 579 ft 127 kts 13°
2026-04-29 12:43 9.83941 126.01174 372 ft 126 kts 12°
2026-04-29 12:43 9.84823 126.01331 153 ft 126 kts 13°
2026-04-29 12:43 9.85676 126.01485 17 ft 117 kts 11°
2026-04-29 12:43 9.86204 126.01579 16 ft 40 kts
2026-04-29 12:44 9.86369 126.01608 16 ft 11 kts
2026-04-29 12:44 9.86429 126.01605 16 ft 5 kts 24°
2026-04-29 12:44 9.86414 126.01619 16 ft 5 kts 194°
2026-04-29 12:44 9.86370 126.01608 16 ft 7 kts 192°
2026-04-29 12:45 9.86311 126.01599 16 ft 9 kts 193°
2026-04-29 12:45 9.86244 126.01584 16 ft 10 kts 189°
2026-04-29 12:45 9.86167 126.01572 16 ft 11 kts 188°
2026-04-29 12:45 9.86082 126.01559 16 ft 12 kts 189°
2026-04-29 12:46 9.85988 126.01542 16 ft 13 kts 191°
2026-04-29 12:46 9.85892 126.01524 16 ft 13 kts 191°
2026-04-29 12:46 9.85816 126.01516 16 ft 8 kts 151°
2026-04-29 12:46 9.85778 126.01550 16 ft 4 kts 97°
2026-04-29 12:47 9.85780 126.01566 16 ft 0 kts 83°
2026-04-29 12:47 9.85781 126.01570 16 ft 0 kts 85°
2026-04-29 12:47 9.85779 126.01578 16 ft 1 kts 104°
2026-04-29 12:47 9.85779 126.01579 16 ft 0 kts 103°